Time,TemperatureF,DewpointF,PressureIn,WindDirection,WindDirectionDegrees,WindSpeedMPH,WindSpeedGustMPH,Humidity,HourlyPrecipIn,Conditions,Clouds,dailyrainin,SoftwareType,DateUTC
2013-03-04 00:00:00,21.1,16.2,30.11,SSE,148,0.0,7.0,81,0.00,,,0.00,WUHU216DAVISVP2,2013-03-04 05:00:00,
2013-03-04 00:05:00,21.1,16.2,30.11,South,169,4.0,8.0,81,0.00,,,0.00,WUHU216DAVISVP2,2013-03-04 05:05:00,
2013-03-04 00:10:00,21.1,16.2,30.11,South,179,1.0,8.0,81,0.00,,,0.00,WUHU216DAVISVP2,2013-03-04 05:10:00,
2013-03-04 00:15:00,21.2,16.3,30.11,SE,143,1.0,8.0,81,0.00,,,0.00,WUHU216DAVISVP2,2013-03-04 05:15:00,
2013-03-04 00:20:00,21.2,16.3,30.11,SSW,211,4.0,8.0,81,0.00,,,0.00,WUHU216DAVISVP2,2013-03-04 05:20:00,
2013-03-04 00:25:00,21.2,16.3,30.11,SSE,152,0.0,7.0,81,0.00,,,0.00,WUHU216DAVISVP2,2013-03-04 05:25:00,
2013-03-04 00:30:00,21.2,16.3,30.11,SE,135,0.0,7.0,81,0.00,,,0.00,WUHU216DAVISVP2,2013-03-04 05:30:00,
2013-03-04 00:35:00,21.2,16.3,30.11,SE,145,0.0,7.0,81,0.00,,,0.00,WUHU216DAVISVP2,2013-03-04 05:35:00,
2013-03-04 00:40:00,21.2,16.3,30.11,SE,146,1.0,4.0,81,0.00,,,0.00,WUHU216DAVISVP2,2013-03-04 05:40:00,
2013-03-04 00:45:00,21.2,16.3,30.11,SE,145,1.0,4.0,81,0.00,,,0.00,WUHU216DAVISVP2,2013-03-04 05:45:00,
2013-03-04 00:50:00,21.2,16.3,30.11,SSE,154,2.0,4.0,81,0.00,,,0.00,WUHU216DAVISVP2,2013-03-04 05:50:00,
2013-03-04 00:55:00,21.2,16.3,30.11,South,188,2.0,4.0,81,0.00,,,0.00,WUHU216DAVISVP2,2013-03-04 05:55:00,
2013-03-04 01:00:00,21.2,16.3,30.11,ESE,103,0.0,4.0,81,0.00,,,0.00,WUHU216DAVISVP2,2013-03-04 06:00:00,
2013-03-04 01:05:00,21.3,16.4,30.12,SE,141,0.0,4.0,81,0.00,,,0.00,WUHU216DAVISVP2,2013-03-04 06:05:00,
2013-03-04 01:10:00,21.3,16.4,30.12,SE,141,0.0,4.0,81,0.00,,,0.00,WUHU216DAVISVP2,2013-03-04 06:10:00,
2013-03-04 01:15:00,21.3,16.4,30.12,SE,141,0.0,1.0,81,0.00,,,0.00,WUHU216DAVISVP2,2013-03-04 06:15:00,
2013-03-04 01:20:00,21.3,16.4,30.12,SSE,160,0.0,1.0,81,0.00,,,0.00,WUHU216DAVISVP2,2013-03-04 06:20:00,
2013-03-04 01:25:00,21.3,16.4,30.12,SSE,148,0.0,1.0,81,0.00,,,0.00,WUHU216DAVISVP2,2013-03-04 06:25:00,
2013-03-04 01:30:00,21.3,16.4,30.12,East,98,0.0,3.0,81,0.00,,,0.00,WUHU216DAVISVP2,2013-03-04 06:30:00,
2013-03-04 01:35:00,21.3,16.4,30.12,ESE,113,0.0,3.0,81,0.00,,,0.00,WUHU216DAVISVP2,2013-03-04 06:35:00,
2013-03-04 01:40:00,21.3,16.4,30.12,East,91,1.0,3.0,81,0.00,,,0.00,WUHU216DAVISVP2,2013-03-04 06:40:00,
2013-03-04 01:45:00,21.3,16.4,30.12,East,101,0.0,3.0,81,0.00,,,0.00,WUHU216DAVISVP2,2013-03-04 06:45:00,
2013-03-04 01:50:00,21.3,16.4,30.12,East,100,0.0,1.0,81,0.00,,,0.00,WUHU216DAVISVP2,2013-03-04 06:50:00,
2013-03-04 01:55:00,21.4,16.5,30.13,East,101,0.0,1.0,81,0.00,,,0.00,WUHU216DAVISVP2,2013-03-04 06:55:00,
2013-03-04 02:00:00,21.5,16.6,30.13,East,100,0.0,1.0,81,0.00,,,0.00,WUHU216DAVISVP2,2013-03-04 07:00:00,
2013-03-04 02:05:00,21.5,16.6,30.13,SE,124,1.0,1.0,81,0.00,,,0.00,WUHU216DAVISVP2,2013-03-04 07:05:00,
2013-03-04 02:10:00,21.6,16.4,30.13,ESE,115,0.0,1.0,80,0.00,,,0.00,WUHU216DAVISVP2,2013-03-04 07:10:00,
2013-03-04 02:15:00,21.7,16.5,30.13,East,86,2.0,3.0,80,0.00,,,0.00,WUHU216DAVISVP2,2013-03-04 07:15:00,
2013-03-04 02:20:00,21.7,16.5,30.13,ESE,107,2.0,3.0,80,0.00,,,0.00,WUHU216DAVISVP2,2013-03-04 07:20:00,
2013-03-04 02:25:00,21.7,16.5,30.13,East,83,0.0,4.0,80,0.00,,,0.00,WUHU216DAVISVP2,2013-03-04 07:25:00,
2013-03-04 02:30:00,21.7,16.8,30.13,SSE,148,0.0,4.0,81,0.00,,,0.00,WUHU216DAVISVP2,2013-03-04 07:30:00,
2013-03-04 02:35:00,21.7,16.8,30.13,East,91,1.0,4.0,81,0.00,,,0.00,WUHU216DAVISVP2,2013-03-04 07:35:00,
2013-03-04 02:40:00,21.7,16.8,30.13,East,90,0.0,4.0,81,0.00,,,0.00,WUHU216DAVISVP2,2013-03-04 07:40:00,
2013-03-04 02:45:00,21.6,16.7,30.14,ESE,103,0.0,2.0,81,0.00,,,0.00,WUHU216DAVISVP2,2013-03-04 07:45:00,
2013-03-04 02:50:00,21.5,16.6,30.13,East,91,0.0,3.0,81,0.00,,,0.00,WUHU216DAVISVP2,2013-03-04 07:50:00,
2013-03-04 02:55:00,21.5,16.8,30.14,East,87,0.0,3.0,82,0.00,,,0.00,WUHU216DAVISVP2,2013-03-04 07:55:00,
2013-03-04 03:00:00,21.4,16.7,30.14,East,89,1.0,3.0,82,0.00,,,0.00,WUHU216DAVISVP2,2013-03-04 08:00:00,
2013-03-04 03:05:00,21.4,16.7,30.14,East,97,1.0,3.0,82,0.00,,,0.00,WUHU216DAVISVP2,2013-03-04 08:05:00,
2013-03-04 03:10:00,21.4,17.0,30.14,ESE,104,0.0,2.0,83,0.00,,,0.00,WUHU216DAVISVP2,2013-03-04 08:10:00,
2013-03-04 03:15:00,21.3,16.9,30.14,East,91,1.0,4.0,83,0.00,,,0.00,WUHU216DAVISVP2,2013-03-04 08:15:00,
2013-03-04 03:20:00,21.2,16.8,30.14,East,84,2.0,4.0,83,0.00,,,0.00,WUHU216DAVISVP2,2013-03-04 08:20:00,
2013-03-04 03:25:00,21.0,16.9,30.14,ESE,105,0.0,4.0,84,0.00,,,0.00,WUHU216DAVISVP2,2013-03-04 08:25:00,
2013-03-04 03:30:00,20.9,16.8,30.13,ENE,68,3.0,3.0,84,0.00,,,0.00,WUHU216DAVISVP2,2013-03-04 08:30:00,
2013-03-04 03:35:00,20.9,16.8,30.13,ENE,62,3.0,4.0,84,0.00,,,0.00,WUHU216DAVISVP2,2013-03-04 08:35:00,
2013-03-04 03:40:00,20.8,16.7,30.13,ENE,78,3.0,4.0,84,0.00,,,0.00,WUHU216DAVISVP2,2013-03-04 08:40:00,
2013-03-04 03:45:00,20.8,16.7,30.13,ESE,102,0.0,4.0,84,0.00,,,0.00,WUHU216DAVISVP2,2013-03-04 08:45:00,
2013-03-04 03:50:00,20.7,16.6,30.13,East,94,1.0,4.0,84,0.00,,,0.00,WUHU216DAVISVP2,2013-03-04 08:50:00,
2013-03-04 03:55:00,20.6,16.5,30.13,East,98,0.0,4.0,84,0.00,,,0.00,WUHU216DAVISVP2,2013-03-04 08:55:00,
2013-03-04 04:00:00,20.5,16.7,30.13,East,91,0.0,4.0,85,0.00,,,0.00,WUHU216DAVISVP2,2013-03-04 09:00:00,
2013-03-04 04:05:00,20.4,16.6,30.13,ESE,110,0.0,4.0,85,0.00,,,0.00,WUHU216DAVISVP2,2013-03-04 09:05:00,
2013-03-04 04:10:00,20.4,16.8,30.13,ESE,116,0.0,3.0,86,0.00,,,0.00,WUHU216DAVISVP2,2013-03-04 09:10:00,
2013-03-04 04:15:00,20.5,16.9,30.13,East,86,0.0,3.0,86,0.00,,,0.00,WUHU216DAVISVP2,2013-03-04 09:15:00,
2013-03-04 04:20:00,20.5,17.2,30.13,East,87,0.0,1.0,87,0.00,,,0.00,WUHU216DAVISVP2,2013-03-04 09:20:00,
2013-03-04 04:25:00,20.6,17.3,30.13,East,96,0.0,2.0,87,0.00,,,0.00,WUHU216DAVISVP2,2013-03-04 09:25:00,
2013-03-04 04:30:00,20.7,17.4,30.13,East,91,0.0,2.0,87,0.00,,,0.00,WUHU216DAVISVP2,2013-03-04 09:30:00,
2013-03-04 04:35:00,20.7,17.7,30.13,East,100,0.0,2.0,88,0.00,,,0.00,WUHU216DAVISVP2,2013-03-04 09:35:00,
2013-03-04 04:40:00,20.8,17.8,30.13,ESE,110,1.0,2.0,88,0.00,,,0.00,WUHU216DAVISVP2,2013-03-04 09:40:00,
2013-03-04 04:45:00,20.7,17.7,30.13,East,91,0.0,2.0,88,0.00,,,0.00,WUHU216DAVISVP2,2013-03-04 09:45:00,
2013-03-04 04:50:00,20.8,17.8,30.14,East,94,0.0,2.0,88,0.00,,,0.00,WUHU216DAVISVP2,2013-03-04 09:50:00,
2013-03-04 04:55:00,20.9,17.9,30.14,East,82,0.0,2.0,88,0.00,,,0.00,WUHU216DAVISVP2,2013-03-04 09:55:00,
2013-03-04 05:00:00,20.9,17.9,30.14,East,94,0.0,2.0,88,0.00,,,0.00,WUHU216DAVISVP2,2013-03-04 10:00:00,
2013-03-04 05:05:00,20.9,18.1,30.14,East,95,0.0,2.0,89,0.00,,,0.00,WUHU216DAVISVP2,2013-03-04 10:05:00,
2013-03-04 05:10:00,20.9,18.1,30.14,East,101,0.0,2.0,89,0.00,,,0.00,WUHU216DAVISVP2,2013-03-04 10:10:00,
2013-03-04 05:15:00,20.9,18.1,30.14,ESE,120,0.0,2.0,89,0.00,,,0.00,WUHU216DAVISVP2,2013-03-04 10:15:00,
2013-03-04 05:20:00,20.8,18.1,30.14,East,101,0.0,2.0,89,0.00,,,0.00,WUHU216DAVISVP2,2013-03-04 10:20:00,
2013-03-04 05:25:00,20.7,17.9,30.14,ESE,111,0.0,3.0,89,0.00,,,0.00,WUHU216DAVISVP2,2013-03-04 10:25:00,
2013-03-04 05:30:00,20.7,17.9,30.14,ESE,122,0.0,3.0,89,0.00,,,0.00,WUHU216DAVISVP2,2013-03-04 10:30:00,
2013-03-04 05:35:00,20.6,17.8,30.14,ESE,113,0.0,3.0,89,0.00,,,0.00,WUHU216DAVISVP2,2013-03-04 10:35:00,
2013-03-04 05:40:00,20.6,17.9,30.15,East,84,0.0,3.0,89,0.00,,,0.00,WUHU216DAVISVP2,2013-03-04 10:40:00,
2013-03-04 05:45:00,20.6,18.1,30.15,ESE,105,1.0,2.0,90,0.00,,,0.00,WUHU216DAVISVP2,2013-03-04 10:45:00,
2013-03-04 05:50:00,20.7,18.2,30.15,East,100,0.0,2.0,90,0.00,,,0.00,WUHU216DAVISVP2,2013-03-04 10:50:00,
2013-03-04 05:55:00,20.7,18.2,30.15,East,91,1.0,1.0,90,0.00,,,0.00,WUHU216DAVISVP2,2013-03-04 10:55:00,
2013-03-04 06:00:00,20.7,18.2,30.15,East,93,1.0,3.0,90,0.00,,,0.00,WUHU216DAVISVP2,2013-03-04 11:00:00,
2013-03-04 06:05:00,20.8,18.3,30.16,ESE,116,0.0,3.0,90,0.00,,,0.00,WUHU216DAVISVP2,2013-03-04 11:05:00,
2013-03-04 06:10:00,20.8,18.3,30.16,East,95,0.0,3.0,90,0.00,,,0.00,WUHU216DAVISVP2,2013-03-04 11:10:00,
2013-03-04 06:15:00,20.9,18.1,30.16,East,87,1.0,3.0,89,0.00,,,0.00,WUHU216DAVISVP2,2013-03-04 11:15:00,
2013-03-04 06:20:00,20.9,18.1,30.17,ESE,117,0.0,4.0,89,0.00,,,0.00,WUHU216DAVISVP2,2013-03-04 11:20:00,
2013-03-04 06:25:00,20.9,18.1,30.17,East,79,0.0,4.0,89,0.00,,,0.00,WUHU216DAVISVP2,2013-03-04 11:25:00,
2013-03-04 06:30:00,20.9,18.1,30.17,East,98,1.0,4.0,89,0.00,,,0.00,WUHU216DAVISVP2,2013-03-04 11:30:00,
2013-03-04 06:35:00,20.9,18.1,30.17,East,89,2.0,4.0,89,0.00,,,0.00,WUHU216DAVISVP2,2013-03-04 11:35:00,
2013-03-04 06:40:00,20.9,18.1,30.17,SSE,149,1.0,4.0,89,0.00,,,0.00,WUHU216DAVISVP2,2013-03-04 11:40:00,
2013-03-04 06:45:00,20.9,18.1,30.17,ESE,122,1.0,4.0,89,0.00,,,0.00,WUHU216DAVISVP2,2013-03-04 11:45:00,
2013-03-04 06:50:00,21.0,18.2,30.18,ESE,109,0.0,4.0,89,0.00,,,0.00,WUHU216DAVISVP2,2013-03-04 11:50:00,
2013-03-04 06:55:00,21.0,18.2,30.18,East,96,2.0,4.0,89,0.00,,,0.00,WUHU216DAVISVP2,2013-03-04 11:55:00,
2013-03-04 07:00:00,20.9,18.1,30.18,ESE,105,0.0,4.0,89,0.00,,,0.00,WUHU216DAVISVP2,2013-03-04 12:00:00,
2013-03-04 07:05:00,20.9,18.1,30.18,East,89,0.0,4.0,89,0.00,,,0.00,WUHU216DAVISVP2,2013-03-04 12:05:00,
2013-03-04 07:10:00,20.9,18.1,30.18,East,99,1.0,3.0,89,0.00,,,0.00,WUHU216DAVISVP2,2013-03-04 12:10:00,
2013-03-04 07:15:00,20.9,18.1,30.18,East,84,0.0,3.0,89,0.00,,,0.00,WUHU216DAVISVP2,2013-03-04 12:15:00,
2013-03-04 07:20:00,20.9,18.2,30.18,ESE,103,2.0,3.0,89,0.00,,,0.00,WUHU216DAVISVP2,2013-03-04 12:20:00,
2013-03-04 07:25:00,20.9,18.4,30.19,ESE,108,0.0,4.0,90,0.00,,,0.00,WUHU216DAVISVP2,2013-03-04 12:25:00,
2013-03-04 07:30:00,20.9,18.1,30.19,East,98,0.0,4.0,89,0.00,,,0.00,WUHU216DAVISVP2,2013-03-04 12:30:00,
2013-03-04 07:35:00,21.0,18.2,30.19,East,101,0.0,4.0,89,0.00,,,0.00,WUHU216DAVISVP2,2013-03-04 12:35:00,
2013-03-04 07:40:00,21.0,18.2,30.19,ESE,117,1.0,3.0,89,0.00,,,0.00,WUHU216DAVISVP2,2013-03-04 12:40:00,
2013-03-04 07:45:00,21.1,18.3,30.19,East,99,0.0,4.0,89,0.00,,,0.00,WUHU216DAVISVP2,2013-03-04 12:45:00,
2013-03-04 07:51:00,21.2,18.4,30.19,ENE,65,3.0,4.0,89,0.00,,,0.00,WUHU216DAVISVP2,2013-03-04 12:51:00,
2013-03-04 07:56:00,21.4,18.9,30.19,ESE,116,0.0,3.0,90,0.00,,,0.00,WUHU216DAVISVP2,2013-03-04 12:56:00,
2013-03-04 08:01:00,21.6,18.9,30.19,NE,53,2.0,4.0,89,0.00,,,0.00,WUHU216DAVISVP2,2013-03-04 13:01:00,
2013-03-04 08:06:00,21.8,19.1,30.19,ESE,122,0.0,4.0,89,0.00,,,0.00,WUHU216DAVISVP2,2013-03-04 13:06:00,
2013-03-04 08:11:00,21.9,19.1,30.19,ESE,115,0.0,4.0,89,0.00,,,0.00,WUHU216DAVISVP2,2013-03-04 13:11:00,
2013-03-04 08:16:00,22.0,18.9,30.19,East,84,1.0,4.0,88,0.00,,,0.00,WUHU216DAVISVP2,2013-03-04 13:16:00,
2013-03-04 08:21:00,21.8,18.5,30.20,East,91,0.0,4.0,87,0.00,,,0.00,WUHU216DAVISVP2,2013-03-04 13:21:00,
2013-03-04 08:26:00,21.7,18.4,30.20,East,101,0.0,4.0,87,0.00,,,0.00,WUHU216DAVISVP2,2013-03-04 13:26:00,
2013-03-04 08:31:00,21.7,18.4,30.20,East,80,2.0,4.0,87,0.00,,,0.00,WUHU216DAVISVP2,2013-03-04 13:31:00,
2013-03-04 08:36:00,21.8,18.5,30.19,East,87,1.0,4.0,87,0.00,,,0.00,WUHU216DAVISVP2,2013-03-04 13:36:00,
2013-03-04 08:41:00,21.9,18.6,30.20,East,89,0.0,3.0,87,0.00,,,0.00,WUHU216DAVISVP2,2013-03-04 13:41:00,
2013-03-04 08:46:00,22.0,18.4,30.20,ESE,111,0.0,3.0,86,0.00,,,0.00,WUHU216DAVISVP2,2013-03-04 13:46:00,
2013-03-04 08:51:00,22.3,18.7,30.20,ESE,106,0.0,3.0,86,0.00,,,0.00,WUHU216DAVISVP2,2013-03-04 13:51:00,
2013-03-04 08:55:00,22.7,18.8,30.20,ENE,72,1.0,3.0,85,0.00,,,0.00,WUHU216DAVISVP2,2013-03-04 13:55:00,
2013-03-04 09:00:00,23.1,19.2,30.20,East,84,2.0,4.0,85,0.00,,,0.00,WUHU216DAVISVP2,2013-03-04 14:00:00,
2013-03-04 09:05:00,23.1,19.0,30.19,ESE,121,2.0,4.0,84,0.00,,,0.00,WUHU216DAVISVP2,2013-03-04 14:05:00,
2013-03-04 09:10:00,23.5,19.4,30.20,ESE,102,0.0,4.0,84,0.00,,,0.00,WUHU216DAVISVP2,2013-03-04 14:10:00,
2013-03-04 09:15:00,23.8,19.4,30.19,SSE,166,1.0,6.0,83,0.00,,,0.00,WUHU216DAVISVP2,2013-03-04 14:15:00,
2013-03-04 09:21:00,24.2,19.8,30.20,SE,124,1.0,6.0,83,0.00,,,0.00,WUHU216DAVISVP2,2013-03-04 14:21:00,
2013-03-04 09:25:00,24.8,19.8,30.20,SE,143,2.0,5.0,81,0.00,,,0.00,WUHU216DAVISVP2,2013-03-04 14:25:00,
2013-03-04 09:30:00,25.0,20.0,30.20,NE,46,1.0,5.0,81,0.00,,,0.00,WUHU216DAVISVP2,2013-03-04 14:30:00,
2013-03-04 09:35:00,25.5,20.2,30.20,East,98,1.0,4.0,80,0.00,,,0.00,WUHU216DAVISVP2,2013-03-04 14:35:00,
2013-03-04 09:40:00,25.8,19.9,30.20,SSE,150,0.0,6.0,78,0.00,,,0.00,WUHU216DAVISVP2,2013-03-04 14:40:00,
2013-03-04 09:45:00,26.0,19.8,30.20,SSW,211,4.0,6.0,77,0.00,,,0.00,WUHU216DAVISVP2,2013-03-04 14:45:00,
2013-03-04 09:50:00,26.1,19.9,30.20,ESE,116,0.0,6.0,77,0.00,,,0.00,WUHU216DAVISVP2,2013-03-04 14:50:00,
2013-03-04 09:55:00,26.2,19.4,30.20,ENE,67,5.0,6.0,75,0.00,,,0.00,WUHU216DAVISVP2,2013-03-04 14:55:00,
2013-03-04 10:00:00,26.2,19.7,30.20,ENE,65,2.0,6.0,76,0.00,,,0.00,WUHU216DAVISVP2,2013-03-04 15:00:00,
2013-03-04 10:05:00,26.2,19.7,30.20,SSE,163,2.0,8.0,76,0.00,,,0.00,WUHU216DAVISVP2,2013-03-04 15:05:00,
2013-03-04 10:10:00,26.0,19.5,30.20,ENE,67,5.0,8.0,76,0.00,,,0.00,WUHU216DAVISVP2,2013-03-04 15:10:00,
2013-03-04 10:15:00,26.1,19.6,30.20,East,87,2.0,7.0,76,0.00,,,0.00,WUHU216DAVISVP2,2013-03-04 15:15:00,
2013-03-04 10:20:00,26.1,19.3,30.20,ENE,61,3.0,7.0,75,0.00,,,0.00,WUHU216DAVISVP2,2013-03-04 15:20:00,
2013-03-04 10:25:00,26.2,19.7,30.20,SE,145,1.0,6.0,76,0.00,,,0.00,WUHU216DAVISVP2,2013-03-04 15:25:00,
2013-03-04 10:30:00,26.3,19.5,30.21,ENE,64,2.0,6.0,75,0.00,,,0.00,WUHU216DAVISVP2,2013-03-04 15:30:00,
2013-03-04 10:35:00,26.4,19.9,30.21,East,83,0.0,7.0,76,0.00,,,0.00,WUHU216DAVISVP2,2013-03-04 15:35:00,
2013-03-04 10:40:00,26.4,19.3,30.20,South,188,2.0,9.0,74,0.00,,,0.00,WUHU216DAVISVP2,2013-03-04 15:40:00,
2013-03-04 10:45:00,26.6,19.8,30.20,East,86,0.0,9.0,75,0.00,,,0.00,WUHU216DAVISVP2,2013-03-04 15:45:00,
2013-03-04 10:50:00,26.7,18.9,30.20,NE,56,3.0,8.0,72,0.00,,,0.00,WUHU216DAVISVP2,2013-03-04 15:50:00,
2013-03-04 10:55:00,26.8,19.0,30.21,SSE,153,0.0,9.0,72,0.00,,,0.00,WUHU216DAVISVP2,2013-03-04 15:55:00,
2013-03-04 11:00:00,27.3,19.2,30.21,East,80,2.0,9.0,71,0.00,,,0.00,WUHU216DAVISVP2,2013-03-04 16:00:00,
2013-03-04 11:05:00,27.3,19.2,30.20,SSE,160,2.0,8.0,71,0.00,,,0.00,WUHU216DAVISVP2,2013-03-04 16:05:00,
2013-03-04 11:10:00,27.8,19.3,30.21,NE,43,7.0,9.0,70,0.00,,,0.00,WUHU216DAVISVP2,2013-03-04 16:10:00,
2013-03-04 11:15:00,27.3,18.8,30.20,SE,143,3.0,9.0,70,0.00,,,0.00,WUHU216DAVISVP2,2013-03-04 16:15:00,
2013-03-04 11:20:00,27.1,18.3,30.20,ENE,63,2.0,9.0,69,0.00,,,0.00,WUHU216DAVISVP2,2013-03-04 16:20:00,
2013-03-04 11:25:00,27.4,19.0,30.21,NE,56,5.0,10.0,70,0.00,,,0.00,WUHU216DAVISVP2,2013-03-04 16:25:00,
2013-03-04 11:30:00,27.6,19.1,30.20,SSE,155,1.0,10.0,70,0.00,,,0.00,WUHU216DAVISVP2,2013-03-04 16:30:00,
2013-03-04 11:35:00,27.8,19.0,30.20,South,187,2.0,10.0,69,0.00,,,0.00,WUHU216DAVISVP2,2013-03-04 16:35:00,
2013-03-04 11:40:00,28.1,19.3,30.20,South,180,2.0,9.0,69,0.00,,,0.00,WUHU216DAVISVP2,2013-03-04 16:40:00,
2013-03-04 11:45:00,27.8,17.6,30.20,ESE,104,0.0,12.0,65,0.00,,,0.00,WUHU216DAVISVP2,2013-03-04 16:45:00,
2013-03-04 11:50:00,28.1,17.9,30.20,SE,131,1.0,12.0,65,0.00,,,0.00,WUHU216DAVISVP2,2013-03-04 16:50:00,
2013-03-04 11:55:00,27.9,17.4,30.20,East,97,2.0,11.0,64,0.00,,,0.00,WUHU216DAVISVP2,2013-03-04 16:55:00,
2013-03-04 12:00:00,28.1,17.8,30.20,East,82,1.0,11.0,65,0.00,,,0.00,WUHU216DAVISVP2,2013-03-04 17:00:00,
2013-03-04 12:05:00,28.2,17.6,30.20,East,98,2.0,10.0,64,0.00,,,0.00,WUHU216DAVISVP2,2013-03-04 17:05:00,
2013-03-04 12:10:00,28.5,17.5,30.20,SSE,150,0.0,10.0,63,0.00,,,0.00,WUHU216DAVISVP2,2013-03-04 17:10:00,
2013-03-04 12:15:00,28.8,17.1,30.20,ESE,107,2.0,9.0,61,0.00,,,0.00,WUHU216DAVISVP2,2013-03-04 17:15:00,
2013-03-04 12:20:00,28.4,17.1,30.20,ESE,115,0.0,9.0,62,0.00,,,0.00,WUHU216DAVISVP2,2013-03-04 17:20:00,
2013-03-04 12:25:00,28.9,18.3,30.20,SE,142,0.0,7.0,64,0.00,,,0.00,WUHU216DAVISVP2,2013-03-04 17:25:00,
2013-03-04 12:30:00,29.4,18.8,30.19,SE,143,1.0,7.0,64,0.00,,,0.00,WUHU216DAVISVP2,2013-03-04 17:30:00,
2013-03-04 12:35:00,29.7,19.8,30.19,SSE,148,2.0,7.0,66,0.00,,,0.00,WUHU216DAVISVP2,2013-03-04 17:35:00,
2013-03-04 12:40:00,29.6,16.6,30.19,SE,141,3.0,6.0,58,0.00,,,0.00,WUHU216DAVISVP2,2013-03-04 17:40:00,
2013-03-04 12:45:00,29.6,18.9,30.19,SSE,151,1.0,12.0,64,0.00,,,0.00,WUHU216DAVISVP2,2013-03-04 17:45:00,
2013-03-04 12:50:00,29.4,18.0,30.19,ENE,63,4.0,12.0,62,0.00,,,0.00,WUHU216DAVISVP2,2013-03-04 17:50:00,
2013-03-04 12:55:00,29.6,19.3,30.19,SE,131,0.0,10.0,65,0.00,,,0.00,WUHU216DAVISVP2,2013-03-04 17:55:00,
2013-03-04 13:00:00,29.8,19.9,30.19,NE,54,2.0,10.0,66,0.00,,,0.00,WUHU216DAVISVP2,2013-03-04 18:00:00,
2013-03-04 13:05:00,29.7,20.1,30.19,SE,139,2.0,9.0,67,0.00,,,0.00,WUHU216DAVISVP2,2013-03-04 18:05:00,
2013-03-04 13:10:00,29.7,19.4,30.19,ESE,106,2.0,9.0,65,0.00,,,0.00,WUHU216DAVISVP2,2013-03-04 18:10:00,
2013-03-04 13:15:00,29.6,19.7,30.18,East,89,0.0,8.0,66,0.00,,,0.00,WUHU216DAVISVP2,2013-03-04 18:15:00,
2013-03-04 13:20:00,29.9,20.0,30.18,SSE,166,0.0,7.0,66,0.00,,,0.00,WUHU216DAVISVP2,2013-03-04 18:20:00,
2013-03-04 13:25:00,29.8,19.8,30.18,SE,139,1.0,9.0,66,0.00,,,0.00,WUHU216DAVISVP2,2013-03-04 18:25:00,
2013-03-04 13:29:00,30.0,20.1,30.18,SSW,203,3.0,9.0,66,0.00,,,0.00,WUHU216DAVISVP2,2013-03-04 18:29:00,
2013-03-04 13:30:00,30.0,20.1,30.18,NE,53,4.0,9.0,66,0.00,,,0.00,WUHU216DAVISVP2,2013-03-04 18:30:00,
2013-03-04 13:35:00,29.9,20.3,30.18,SE,127,2.0,8.0,67,0.00,,,0.00,WUHU216DAVISVP2,2013-03-04 18:35:00,
2013-03-04 13:40:00,30.0,20.4,30.18,SSE,159,2.0,8.0,67,0.00,,,0.00,WUHU216DAVISVP2,2013-03-04 18:40:00,
2013-03-04 13:45:00,29.9,20.7,30.18,ENE,60,5.0,9.0,68,0.00,,,0.00,WUHU216DAVISVP2,2013-03-04 18:45:00,
2013-03-04 13:50:00,29.5,20.6,30.18,SE,135,1.0,9.0,69,0.00,,,0.00,WUHU216DAVISVP2,2013-03-04 18:50:00,
2013-03-04 13:55:00,29.8,20.9,30.17,East,84,3.0,10.0,69,0.00,,,0.00,WUHU216DAVISVP2,2013-03-04 18:55:00,
2013-03-04 14:00:00,29.8,20.6,30.18,East,91,2.0,10.0,68,0.00,,,0.00,WUHU216DAVISVP2,2013-03-04 19:00:00,
2013-03-04 14:05:00,30.0,20.4,30.17,SE,143,3.0,9.0,67,0.00,,,0.00,WUHU216DAVISVP2,2013-03-04 19:05:00,
2013-03-04 14:10:00,29.9,20.3,30.17,SE,139,0.0,9.0,67,0.00,,,0.00,WUHU216DAVISVP2,2013-03-04 19:10:00,
2013-03-04 14:15:00,29.9,20.3,30.17,SE,128,2.0,9.0,67,0.00,,,0.00,WUHU216DAVISVP2,2013-03-04 19:15:00,
2013-03-04 14:20:00,30.0,20.4,30.17,ENE,68,0.0,9.0,67,0.00,,,0.00,WUHU216DAVISVP2,2013-03-04 19:20:00,
2013-03-04 14:25:00,30.6,20.3,30.17,ENE,71,2.0,8.0,65,0.00,,,0.00,WUHU216DAVISVP2,2013-03-04 19:25:00,
2013-03-04 14:30:00,30.4,20.1,30.17,ENE,73,4.0,8.0,65,0.00,,,0.00,WUHU216DAVISVP2,2013-03-04 19:30:00,
2013-03-04 14:35:00,30.3,20.3,30.18,NE,51,3.0,7.0,66,0.00,,,0.00,WUHU216DAVISVP2,2013-03-04 19:35:00,
2013-03-04 14:40:00,30.2,20.3,30.17,ENE,61,3.0,10.0,66,0.00,,,0.00,WUHU216DAVISVP2,2013-03-04 19:40:00,
2013-03-04 14:45:00,30.2,20.3,30.18,ENE,65,2.0,10.0,66,0.00,,,0.00,WUHU216DAVISVP2,2013-03-04 19:45:00,
2013-03-04 14:50:00,30.4,20.5,30.18,ENE,60,7.0,9.0,66,0.00,,,0.00,WUHU216DAVISVP2,2013-03-04 19:50:00,
2013-03-04 14:55:00,30.3,20.4,30.17,ESE,111,4.0,11.0,66,0.00,,,0.00,WUHU216DAVISVP2,2013-03-04 19:55:00,
2013-03-04 15:00:00,30.1,19.7,30.17,ENE,72,4.0,11.0,65,0.00,,,0.00,WUHU216DAVISVP2,2013-03-04 20:00:00,
2013-03-04 15:05:00,30.3,20.4,30.17,East,93,0.0,11.0,66,0.00,,,0.00,WUHU216DAVISVP2,2013-03-04 20:05:00,
2013-03-04 15:10:00,30.4,20.1,30.17,SE,127,1.0,10.0,65,0.00,,,0.00,WUHU216DAVISVP2,2013-03-04 20:10:00,
2013-03-04 15:15:00,30.5,20.6,30.17,South,177,2.0,9.0,66,0.00,,,0.00,WUHU216DAVISVP2,2013-03-04 20:15:00,
2013-03-04 15:20:00,30.4,20.8,30.17,SE,139,0.0,9.0,67,0.00,,,0.00,WUHU216DAVISVP2,2013-03-04 20:20:00,
2013-03-04 15:25:00,30.6,21.0,30.17,ESE,121,1.0,6.0,67,0.01,,,0.01,WUHU216DAVISVP2,2013-03-04 20:25:00,
2013-03-04 15:30:00,30.6,20.9,30.17,SSW,195,1.0,5.0,67,0.01,,,0.01,WUHU216DAVISVP2,2013-03-04 20:30:00,
2013-03-04 15:35:00,30.6,21.3,30.17,SE,124,3.0,5.0,68,0.01,,,0.01,WUHU216DAVISVP2,2013-03-04 20:35:00,
2013-03-04 15:40:00,30.6,21.4,30.16,SSE,158,0.0,5.0,68,0.01,,,0.01,WUHU216DAVISVP2,2013-03-04 20:40:00,
2013-03-04 15:45:00,31.0,21.4,30.16,SSE,162,0.0,5.0,67,0.01,,,0.01,WUHU216DAVISVP2,2013-03-04 20:45:00,
2013-03-04 15:50:00,30.9,21.3,30.16,SSE,165,1.0,5.0,67,0.01,,,0.01,WUHU216DAVISVP2,2013-03-04 20:50:00,
2013-03-04 15:55:00,30.9,20.9,30.16,SE,124,0.0,4.0,66,0.01,,,0.01,WUHU216DAVISVP2,2013-03-04 20:55:00,
2013-03-04 16:00:00,31.1,21.5,30.16,SE,144,2.0,5.0,67,0.01,,,0.01,WUHU216DAVISVP2,2013-03-04 21:00:00,
2013-03-04 16:05:00,30.8,21.2,30.17,SSE,160,0.0,5.0,67,0.01,,,0.01,WUHU216DAVISVP2,2013-03-04 21:05:00,
2013-03-04 16:10:00,30.3,21.1,30.17,SE,131,1.0,7.0,68,0.01,,,0.01,WUHU216DAVISVP2,2013-03-04 21:10:00,
2013-03-04 16:15:00,30.2,21.0,30.17,South,178,2.0,7.0,68,0.01,,,0.01,WUHU216DAVISVP2,2013-03-04 21:15:00,
2013-03-04 16:20:00,29.9,20.6,30.17,East,98,0.0,7.0,68,0.01,,,0.01,WUHU216DAVISVP2,2013-03-04 21:20:00,
2013-03-04 16:25:00,30.0,21.1,30.17,SSE,162,1.0,7.0,69,0.00,,,0.01,WUHU216DAVISVP2,2013-03-04 21:25:00,
2013-03-04 16:30:00,29.7,20.5,30.17,ESE,122,0.0,6.0,68,0.00,,,0.01,WUHU216DAVISVP2,2013-03-04 21:30:00,
2013-03-04 16:35:00,29.5,20.0,30.17,SE,139,0.0,5.0,67,0.00,,,0.01,WUHU216DAVISVP2,2013-03-04 21:35:00,
2013-03-04 16:40:00,29.4,19.5,30.17,SSE,155,1.0,5.0,66,0.00,,,0.01,WUHU216DAVISVP2,2013-03-04 21:40:00,
2013-03-04 16:45:00,29.3,20.1,30.17,SSE,153,1.0,5.0,68,0.00,,,0.01,WUHU216DAVISVP2,2013-03-04 21:45:00,
2013-03-04 16:50:00,29.1,19.9,30.17,ESE,110,0.0,5.0,68,0.00,,,0.01,WUHU216DAVISVP2,2013-03-04 21:50:00,
2013-03-04 16:55:00,29.3,19.4,30.17,East,100,3.0,5.0,66,0.00,,,0.01,WUHU216DAVISVP2,2013-03-04 21:55:00,
2013-03-04 17:00:00,29.5,19.2,30.17,SSE,160,0.0,5.0,65,0.00,,,0.01,WUHU216DAVISVP2,2013-03-04 22:00:00,
2013-03-04 17:05:00,29.0,18.7,30.17,SSW,198,2.0,6.0,65,0.00,,,0.01,WUHU216DAVISVP2,2013-03-04 22:05:00,
2013-03-04 17:10:00,28.6,19.4,30.17,SE,124,1.0,6.0,68,0.00,,,0.01,WUHU216DAVISVP2,2013-03-04 22:10:00,
2013-03-04 17:15:00,28.9,19.4,30.17,SE,146,0.0,6.0,67,0.00,,,0.01,WUHU216DAVISVP2,2013-03-04 22:15:00,
2013-03-04 17:20:00,28.9,19.7,30.17,SSE,156,0.0,6.0,68,0.00,,,0.01,WUHU216DAVISVP2,2013-03-04 22:20:00,
2013-03-04 17:25:00,28.2,19.1,30.17,SSE,163,0.0,4.0,68,0.00,,,0.01,WUHU216DAVISVP2,2013-03-04 22:25:00,
2013-03-04 17:30:00,28.0,19.5,30.17,SE,142,0.0,4.0,70,0.00,,,0.01,WUHU216DAVISVP2,2013-03-04 22:30:00,
2013-03-04 17:35:00,28.1,20.0,30.17,SE,138,0.0,4.0,71,0.00,,,0.01,WUHU216DAVISVP2,2013-03-04 22:35:00,
2013-03-04 17:40:00,28.0,19.5,30.17,SE,130,0.0,4.0,70,0.00,,,0.01,WUHU216DAVISVP2,2013-03-04 22:40:00,
2013-03-04 17:45:00,27.7,19.6,30.17,SW,214,2.0,4.0,71,0.00,,,0.01,WUHU216DAVISVP2,2013-03-04 22:45:00,
2013-03-04 17:50:00,27.2,19.4,30.17,SE,138,2.0,4.0,72,0.00,,,0.01,WUHU216DAVISVP2,2013-03-04 22:50:00,
2013-03-04 17:55:00,26.9,19.1,30.17,South,169,2.0,4.0,72,0.00,,,0.01,WUHU216DAVISVP2,2013-03-04 22:55:00,
2013-03-04 18:00:00,26.6,19.2,30.17,SSE,159,0.0,4.0,73,0.00,,,0.01,WUHU216DAVISVP2,2013-03-04 23:00:00,
2013-03-04 18:05:00,26.4,19.3,30.17,SSW,194,1.0,4.0,74,0.00,,,0.01,WUHU216DAVISVP2,2013-03-04 23:05:00,
2013-03-04 18:10:00,26.1,19.3,30.17,South,180,3.0,4.0,75,0.00,,,0.01,WUHU216DAVISVP2,2013-03-04 23:10:00,
2013-03-04 18:15:00,25.9,19.1,30.17,SE,139,0.0,4.0,75,0.00,,,0.01,WUHU216DAVISVP2,2013-03-04 23:15:00,
2013-03-04 18:20:00,25.9,19.1,30.17,SE,146,1.0,4.0,75,0.00,,,0.01,WUHU216DAVISVP2,2013-03-04 23:20:00,
2013-03-04 18:25:00,25.7,19.2,30.17,SSE,160,2.0,4.0,76,0.00,,,0.01,WUHU216DAVISVP2,2013-03-04 23:25:00,
2013-03-04 18:30:00,25.6,19.1,30.17,SSE,158,1.0,4.0,76,0.00,,,0.01,WUHU216DAVISVP2,2013-03-04 23:30:00,
2013-03-04 18:35:00,25.4,19.2,30.17,SSE,153,0.0,4.0,77,0.00,,,0.01,WUHU216DAVISVP2,2013-03-04 23:35:00,
2013-03-04 18:40:00,25.3,19.1,30.17,South,174,1.0,4.0,77,0.00,,,0.01,WUHU216DAVISVP2,2013-03-04 23:40:00,
2013-03-04 18:45:00,25.2,19.0,30.17,SSE,153,0.0,4.0,77,0.00,,,0.01,WUHU216DAVISVP2,2013-03-04 23:45:00,
2013-03-04 18:50:00,25.1,18.9,30.17,SSE,152,0.0,2.0,77,0.00,,,0.01,WUHU216DAVISVP2,2013-03-04 23:50:00,
2013-03-04 18:55:00,25.0,18.8,30.17,SSE,161,0.0,2.0,77,0.00,,,0.01,WUHU216DAVISVP2,2013-03-04 23:55:00,
2013-03-04 19:00:00,24.9,18.7,30.17,SSE,153,0.0,2.0,77,0.00,,,0.01,WUHU216DAVISVP2,2013-03-05 00:00:00,
2013-03-04 19:05:00,24.8,18.9,30.17,SSE,153,0.0,2.0,78,0.00,,,0.01,WUHU216DAVISVP2,2013-03-05 00:05:00,
2013-03-04 19:10:00,24.6,18.7,30.18,SSE,153,0.0,2.0,78,0.00,,,0.01,WUHU216DAVISVP2,2013-03-05 00:10:00,
2013-03-04 19:15:00,24.4,18.5,30.18,SSE,153,0.0,2.0,78,0.00,,,0.01,WUHU216DAVISVP2,2013-03-05 00:15:00,
2013-03-04 19:20:00,24.2,18.6,30.18,SSE,153,0.0,1.0,79,0.00,,,0.01,WUHU216DAVISVP2,2013-03-05 00:20:00,
2013-03-04 19:25:00,24.1,18.2,30.18,SSE,153,0.0,1.0,78,0.00,,,0.01,WUHU216DAVISVP2,2013-03-05 00:25:00,
2013-03-04 19:30:00,24.0,18.2,30.18,SSE,153,0.0,1.0,78,0.00,,,0.01,WUHU216DAVISVP2,2013-03-05 00:30:00,
2013-03-04 19:35:00,23.9,18.1,30.18,SSE,154,0.0,1.0,78,0.00,,,0.01,WUHU216DAVISVP2,2013-03-05 00:35:00,
2013-03-04 19:40:00,23.8,18.0,30.17,SSE,154,0.0,1.0,78,0.00,,,0.01,WUHU216DAVISVP2,2013-03-05 00:40:00,
2013-03-04 19:45:00,23.8,18.0,30.17,SSE,153,0.0,1.0,78,0.00,,,0.01,WUHU216DAVISVP2,2013-03-05 00:45:00,
2013-03-04 19:50:00,23.7,17.9,30.17,SSE,154,0.0,1.0,78,0.00,,,0.01,WUHU216DAVISVP2,2013-03-05 00:50:00,
2013-03-04 19:55:00,23.7,17.9,30.17,SSE,154,0.0,1.0,78,0.00,,,0.01,WUHU216DAVISVP2,2013-03-05 00:55:00,
2013-03-04 20:00:00,23.6,17.8,30.17,SSE,154,0.0,0.0,78,0.00,,,0.01,WUHU216DAVISVP2,2013-03-05 01:00:00,
2013-03-04 20:05:00,23.6,17.5,30.17,SSE,153,0.0,0.0,77,0.00,,,0.01,WUHU216DAVISVP2,2013-03-05 01:05:00,
2013-03-04 20:10:00,23.7,17.6,30.17,SSE,153,0.0,0.0,77,0.00,,,0.01,WUHU216DAVISVP2,2013-03-05 01:10:00,
2013-03-04 20:15:00,23.6,17.5,30.17,SSE,153,0.0,0.0,77,0.00,,,0.01,WUHU216DAVISVP2,2013-03-05 01:15:00,
2013-03-04 20:20:00,23.6,17.2,30.17,SSE,154,0.0,0.0,76,0.00,,,0.01,WUHU216DAVISVP2,2013-03-05 01:20:00,
2013-03-04 20:25:00,23.6,17.1,30.17,SSE,153,0.0,0.0,76,0.00,,,0.01,WUHU216DAVISVP2,2013-03-05 01:25:00,
2013-03-04 20:30:00,23.6,17.4,30.17,SSE,154,0.0,0.0,77,0.00,,,0.01,WUHU216DAVISVP2,2013-03-05 01:30:00,
2013-03-04 20:35:00,23.3,17.2,30.17,SSE,153,0.0,0.0,77,0.00,,,0.01,WUHU216DAVISVP2,2013-03-05 01:35:00,
2013-03-04 20:40:00,22.9,17.1,30.17,SSE,154,0.0,0.0,78,0.00,,,0.01,WUHU216DAVISVP2,2013-03-05 01:40:00,
2013-03-04 20:45:00,22.8,17.3,30.17,SSE,153,0.0,0.0,79,0.00,,,0.01,WUHU216DAVISVP2,2013-03-05 01:45:00,
2013-03-04 20:50:00,22.6,17.4,30.17,SSE,153,0.0,0.0,80,0.00,,,0.01,WUHU216DAVISVP2,2013-03-05 01:50:00,
2013-03-04 20:55:00,22.5,17.5,30.17,SSE,153,0.0,0.0,81,0.00,,,0.01,WUHU216DAVISVP2,2013-03-05 01:55:00,
2013-03-04 21:00:00,22.4,17.4,30.17,SSE,153,0.0,0.0,81,0.00,,,0.01,WUHU216DAVISVP2,2013-03-05 02:00:00,
2013-03-04 21:05:00,22.4,17.4,30.17,SSE,153,0.0,0.0,81,0.00,,,0.01,WUHU216DAVISVP2,2013-03-05 02:05:00,
2013-03-04 21:10:00,22.2,17.5,30.17,SSE,153,0.0,0.0,82,0.00,,,0.01,WUHU216DAVISVP2,2013-03-05 02:10:00,
2013-03-04 21:15:00,22.1,17.4,30.17,SSE,153,0.0,0.0,82,0.00,,,0.01,WUHU216DAVISVP2,2013-03-05 02:15:00,
2013-03-04 21:20:00,21.9,17.2,30.17,SSE,154,0.0,0.0,82,0.00,,,0.01,WUHU216DAVISVP2,2013-03-05 02:20:00,
2013-03-04 21:25:00,21.8,17.4,30.17,SSE,153,0.0,0.0,83,0.00,,,0.01,WUHU216DAVISVP2,2013-03-05 02:25:00,
2013-03-04 21:30:00,21.8,17.4,30.17,SSE,153,0.0,0.0,83,0.00,,,0.01,WUHU216DAVISVP2,2013-03-05 02:30:00,
2013-03-04 21:35:00,21.9,17.5,30.17,SSE,153,0.0,0.0,83,0.00,,,0.01,WUHU216DAVISVP2,2013-03-05 02:35:00,
2013-03-04 21:40:00,21.7,17.3,30.17,SSE,154,0.0,0.0,83,0.00,,,0.01,WUHU216DAVISVP2,2013-03-05 02:40:00,
2013-03-04 21:45:00,21.6,17.2,30.17,SSE,154,0.0,0.0,83,0.00,,,0.01,WUHU216DAVISVP2,2013-03-05 02:45:00,
2013-03-04 21:50:00,21.6,17.2,30.17,SSE,153,0.0,0.0,83,0.00,,,0.01,WUHU216DAVISVP2,2013-03-05 02:50:00,
2013-03-04 21:55:00,21.7,17.3,30.17,SSE,153,0.0,0.0,83,0.00,,,0.01,WUHU216DAVISVP2,2013-03-05 02:55:00,
2013-03-04 22:00:00,21.7,17.0,30.17,SSE,154,0.0,0.0,82,0.00,,,0.01,WUHU216DAVISVP2,2013-03-05 03:00:00,
2013-03-04 22:05:00,21.9,17.2,30.17,SSE,153,0.0,0.0,82,0.00,,,0.01,WUHU216DAVISVP2,2013-03-05 03:05:00,
2013-03-04 22:10:00,21.7,17.1,30.17,SSE,153,0.0,0.0,82,0.00,,,0.01,WUHU216DAVISVP2,2013-03-05 03:10:00,
2013-03-04 22:15:00,21.7,17.1,30.17,SSE,153,0.0,0.0,82,0.00,,,0.01,WUHU216DAVISVP2,2013-03-05 03:15:00,
2013-03-04 22:20:00,22.0,17.3,30.17,SSE,153,0.0,0.0,82,0.00,,,0.01,WUHU216DAVISVP2,2013-03-05 03:20:00,
2013-03-04 22:25:00,21.9,17.2,30.17,SSE,154,0.0,0.0,82,0.00,,,0.01,WUHU216DAVISVP2,2013-03-05 03:25:00,
2013-03-04 22:30:00,22.0,17.3,30.17,SSE,153,0.0,0.0,82,0.00,,,0.01,WUHU216DAVISVP2,2013-03-05 03:30:00,
2013-03-04 22:35:00,21.9,17.2,30.16,SSE,154,0.0,0.0,82,0.00,,,0.01,WUHU216DAVISVP2,2013-03-05 03:35:00,
2013-03-04 22:40:00,21.9,17.2,30.17,SSE,153,0.0,0.0,82,0.00,,,0.01,WUHU216DAVISVP2,2013-03-05 03:40:00,
2013-03-04 22:45:00,21.9,17.2,30.17,SSE,153,0.0,0.0,82,0.00,,,0.01,WUHU216DAVISVP2,2013-03-05 03:45:00,
2013-03-04 22:50:00,21.7,17.3,30.17,SSE,153,0.0,0.0,83,0.00,,,0.01,WUHU216DAVISVP2,2013-03-05 03:50:00,
2013-03-04 22:55:00,21.6,17.2,30.17,SSE,153,0.0,0.0,83,0.00,,,0.01,WUHU216DAVISVP2,2013-03-05 03:55:00,
2013-03-04 23:00:00,21.5,17.1,30.17,SSE,153,0.0,0.0,83,0.00,,,0.01,WUHU216DAVISVP2,2013-03-05 04:00:00,
2013-03-04 23:05:00,21.2,16.8,30.17,SSE,153,0.0,0.0,83,0.00,,,0.01,WUHU216DAVISVP2,2013-03-05 04:05:00,
2013-03-04 23:10:00,21.3,17.2,30.17,SSE,153,0.0,0.0,84,0.00,,,0.01,WUHU216DAVISVP2,2013-03-05 04:10:00,
2013-03-04 23:15:00,21.2,17.1,30.17,SSE,154,0.0,0.0,84,0.00,,,0.01,WUHU216DAVISVP2,2013-03-05 04:15:00,
2013-03-04 23:20:00,21.2,17.4,30.16,SSE,153,0.0,0.0,85,0.00,,,0.01,WUHU216DAVISVP2,2013-03-05 04:20:00,
2013-03-04 23:25:00,21.3,17.5,30.17,SSE,153,0.0,0.0,85,0.00,,,0.01,WUHU216DAVISVP2,2013-03-05 04:25:00,
2013-03-04 23:30:00,21.2,17.4,30.17,SSE,153,0.0,0.0,85,0.00,,,0.01,WUHU216DAVISVP2,2013-03-05 04:30:00,
2013-03-04 23:35:00,21.2,17.6,30.17,SSE,153,0.0,0.0,86,0.00,,,0.01,WUHU216DAVISVP2,2013-03-05 04:35:00,
2013-03-04 23:40:00,21.0,17.4,30.17,SSE,153,0.0,0.0,86,0.00,,,0.01,WUHU216DAVISVP2,2013-03-05 04:40:00,
2013-03-04 23:45:00,20.8,17.5,30.17,SSE,154,0.0,0.0,87,0.00,,,0.01,WUHU216DAVISVP2,2013-03-05 04:45:00,
2013-03-04 23:50:00,20.7,17.4,30.17,SSE,153,0.0,0.0,87,0.00,,,0.01,WUHU216DAVISVP2,2013-03-05 04:50:00,
2013-03-04 23:55:00,20.7,17.7,30.17,SSE,153,0.0,0.0,88,0.00,,,0.01,WUHU216DAVISVP2,2013-03-05 04:55:00,